This demonstration page uses our WeatherBlox Daily Observations layout. Learn more.

Left ArrowRight Arrow

Hourly Observations for June 6, 2020

Temp ( °F °C ) Dew Point ( °F °C ) Humidity (%) Winds ( mph kmh ) Pressure ( in mb ) Visibility ( mi km ) Precip ( " mm )
12:53 am 00:53 Clear 62 16.7 46 7.8 56 56 E 26 43 29.55 1001 10 16 N/A
1:53 am 01:53 Clear 62 16.7 45 7.2 54 54 E 31 50 29.50 999 10 16 N/A
2:53 am 02:53 Partly Cloudy 63 17.2 45 7.2 52 52 E 15 24 29.52 1000 10 16 N/A
3:53 am 03:53 Mostly Clear 63 17.2 46 7.8 54 54 E 23 37 29.47 998 10 16 N/A
4:53 am 04:53 Clear 63 17.2 46 7.8 54 54 E 21 33 29.46 998 10 16 N/A
5:53 am 05:53 Sunny 62 16.7 46 7.8 56 56 E 26 43 29.46 998 10 16 N/A
6:53 am 06:53 Sunny 62 16.7 47 8.3 58 58 E 17 28 29.49 999 10 16 N/A
7:53 am 07:53 Sunny 65 18.3 48 8.9 54 54 E 10 17 29.50 999 10 16 N/A
8:53 am 08:53 Sunny 67 19.4 51 10.6 57 57 S 3 6 29.51 999 10 16 N/A
9:53 am 09:53 Sunny 70 21.1 52 11.1 53 53 WSW 9 15 29.51 999 10 16 N/A
10:53 am 10:53 Sunny 73 22.8 54 12.2 51 51 NW 5 7 29.49 999 10 16 N/A
11:53 am 11:53 Sunny 74 23.3 55 12.8 52 52 NE 5 7 29.48 998 10 16 N/A
12:53 pm 12:53 Mostly Sunny 71 21.7 52 11.1 51 51 ENE 8 13 29.49 999 10 16 N/A
1:53 pm 13:53 Partly Cloudy 71 21.7 53 11.7 53 53 E 8 13 29.47 998 10 16 N/A
2:53 pm 14:53 Mostly Sunny 72 22.2 54 12.2 53 53 E 7 11 29.47 998 10 16 N/A
3:53 pm 15:53 Cloudy 69 20.6 55 12.8 61 61 E 10 17 29.45 997 10 16 N/A
4:53 pm 16:53 Mostly Cloudy 67 19.4 56 13.3 68 68 E 9 15 29.43 997 10 16 N/A
5:53 pm 17:53 Cloudy with Light Rain 65 18.3 58 14.4 78 78 E 5 7 29.42 996 10 16 0.01 0.25
6:53 pm 18:53 Cloudy with Rain 62 16.7 59 15 90 90 NE 7 11 29.42 996 6 10 0.03 0.76
7:53 pm 19:53 Cloudy with Light Rain 61 16.1 58 14.4 90 90 ENE 7 11 29.40 996 10 16 0.05 1.27
8:53 pm 20:53 Cloudy with Light Rain 60 15.6 58 14.4 93 93 N 5 7 29.38 995 10 16 0.02 0.51
9:09 pm 21:09 Cloudy 60 15.6 58 14.4 93 93 N 3 6 29.36 994 10 16 0.01 0.25
9:33 pm 21:33 Cloudy 60 15.6 57 13.9 90 90 N 5 7 29.36 994 10 16 0.01 0.25
9:53 pm 21:53 Cloudy with Light Rain 59 15 57 13.9 93 93 N 6 9 29.37 995 10 16 0.01 0.25
10:46 pm 22:46 Cloudy with Light Rain 58 14.4 56 13.3 93 93 WNW 17 28 29.37 994 9 14 0.01 0.25
10:53 pm 22:53 Cloudy with Light Rain 56 13.3 54 12.2 93 93 WNW 20 31 29.37 995 8 13 0.02 0.51
11:03 pm 23:03 Cloudy with Light Rain 55 12.8 53 11.7 93 93 NW 17 28 29.38 995 7 11 0.00 0.00
11:10 pm 23:10 Cloudy with Rain 55 12.8 53 11.7 93 93 NW 15 24 29.38 995 7 11 0.01 0.25
11:29 pm 23:29 Cloudy with Rain 55 12.8 54 12.2 96 96 NW 20 31 29.37 995 7 11 0.04 1.02
11:38 pm 23:38 Cloudy with Rain 55 12.8 53 11.7 93 93 WNW 17 28 29.37 995 7 11 0.05 1.27
11:53 pm 23:53 Cloudy with Rain 54 12.2 53 11.7 97 97 WNW 23 37 29.36 994 7 11 0.07 1.78

Powered by AerisWeather